Simultaneous Nadir Overpasses (SNOs) Predictions

Prediction of SNOs between GOES-16 and NPP Satellite Orbit:

Table of predicted SNOs for the next 14.0 days since TLE Epoch: 9/2/2023
Index Date Time (GOES-16) GOES-16 Lat,Lon NPP Lat,Lon Distance(km) Time Diff (sec)
1 09/02/2023 18:18:03 -0.06, -75.21 0.49, -72.73 283.16 80
2 09/04/2023 06:39:49 0.06, -75.22 0.70, -77.99 316.86 80
3 09/05/2023 06:18:24 0.06, -75.22 -0.31, -73.46 200.40 80
4 09/06/2023 18:40:19 -0.06, -75.24 -0.88, -78.76 402.32 80
5 09/07/2023 18:24:14 -0.05, -75.25 0.19, -74.24 115.25 80
6 09/09/2023 06:46:01 0.05, -75.26 0.99, -79.51 483.99 80
7 09/10/2023 06:24:35 0.04, -75.27 -0.02, -74.98 33.80 80
8 09/12/2023 18:27:45 -0.03, -75.32 -0.13, -75.75 49.51 80
9 09/13/2023 18:11:40 -0.03, -75.34 0.88, -71.22 469.15 80
10 09/15/2023 06:33:26 0.02, -75.37 0.30, -76.49 128.22 80
